| time (UTC) | temp C | wind direction | speed KPH | gust KPH | rain 1hr cm | rain 24hr cm | rain mn cm | humidity % | barometer mb |
| 20260906140302 | 22 | 105 | 8.0 | 14.5 | 0.00 | 0.00 | 0.00 | 71 | 992.7 |
| 20260906135802 | 22 | 132 | 8.0 | 14.5 | 0.00 | 0.00 | 0.00 | 72 | 992.7 |
| 20260906135305 | 22 | 104 | 8.0 | 12.9 | 0.00 | 0.00 | 0.00 | 74 | 992.6 |
| 20260906134800 | 21 | 144 | 6.4 | 12.9 | 0.00 | 0.00 | 0.00 | 74 | 992.6 |
| 20260906134538 | 21 | 89 | 4.8 | 12.9 | 0.00 | 0.00 | 0.00 | 74 | 992.6 |
| 20260906134037 | 21 | 48 | 4.8 | 9.7 | 0.00 | 0.00 | 0.00 | 75 | 992.7 |
| 20260906133302 | 21 | 123 | 4.8 | 9.7 | 0.00 | 0.00 | 0.00 | 76 | 992.6 |
| 20260906132802 | 21 | 41 | 4.8 | 11.3 | 0.00 | 0.00 | 0.00 | 77 | 992.5 |
| 20260906132300 | 20 | 15 | 4.8 | 11.3 | 0.00 | 0.00 | 0.00 | 79 | 992.6 |
| 20260906131801 | 20 | 36 | 3.2 | 9.7 | 0.00 | 0.00 | 0.00 | 80 | 992.5 |
| 20260906131539 | 20 | 325 | 1.6 | 8.0 | 0.00 | 0.00 | 0.00 | 82 | 992.4 |
| 20260906130800 | 20 | 44 | 3.2 | 8.0 | 0.00 | 0.00 | 0.00 | 83 | 992.4 |
| 20260906130302 | 19 | 9 | 1.6 | 8.0 | 0.00 | 0.00 | 0.00 | 85 | 992.3 |
| 20260906130038 | 19 | 30 | 1.6 | 6.4 | 0.00 | 0.00 | 0.00 | 85 | 992.3 |
| 20260906125305 | 19 | 5 | 1.6 | 6.4 | 0.00 | 0.00 | 0.00 | 85 | 992.1 |
| 20260906124801 | 19 | 306 | 1.6 | 6.4 | 0.00 | 0.00 | 0.00 | 86 | 991.9 |
| 20260906124302 | 18 | 25 | 1.6 | 6.4 | 0.00 | 0.00 | 0.00 | 86 | 991.8 |
| 20260906123817 | 18 | 39 | 1.6 | 6.4 | 0.00 | 0.00 | 0.00 | 86 | 991.8 |
| 20260906123811 | 18 | 25 | 1.6 | 6.4 | 0.00 | 0.00 | 0.00 | 86 | 991.8 |
| 20260906122801 | 18 | 32 | 3.2 | 8.0 | 0.00 | 0.00 | 0.00 | 86 | 991.7 |
| 20260906122301 | 18 | 32 | 3.2 | 8.0 | 0.00 | 0.00 | 0.00 | 86 | 991.8 |
| 20260906121800 | 18 | 0 | 3.2 | 6.4 | 0.00 | 0.00 | 0.00 | 86 | 991.7 |
| 20260906121302 | 18 | 17 | 3.2 | 6.4 | 0.00 | 0.00 | 0.00 | 86 | 991.7 |
| 20260906120802 | 18 | 17 | 3.2 | 6.4 | 0.00 | 0.00 | 0.00 | 86 | 991.6 |
| 20260906120300 | 18 | 44 | 3.2 | 6.4 | 0.00 | 0.00 | 0.00 | 86 | 991.5 |
| 20260906115801 | 18 | 44 | 3.2 | 6.4 | 0.00 | 0.00 | 0.00 | 85 | 991.5 |
| 20260906115301 | 17 | 44 | 1.6 | 6.4 | 0.00 | 0.00 | 0.00 | 85 | 991.4 |
| 20260906114801 | 17 | 322 | 1.6 | 4.8 | 0.00 | 0.00 | 0.00 | 85 | 991.3 |
| 20260906114301 | 18 | 322 | 3.2 | 6.4 | 0.00 | 0.00 | 0.00 | 85 | 991.2 |
| 20260906113802 | 17 | 322 | 4.8 | 8.0 | 0.00 | 0.00 | 0.00 | 85 | 991.3 |
| 20260906113540 | 17 | 322 | 3.2 | 8.0 | 0.00 | 0.00 | 0.00 | 85 | 991.2 |
| 20260906112801 | 18 | 342 | 3.2 | 6.4 | 0.00 | 0.00 | 0.00 | 85 | 991.1 |
| 20260906112537 | 18 | 342 | 3.2 | 8.0 | 0.00 | 0.00 | 0.00 | 85 | 991.0 |
| 20260906111801 | 18 | 342 | 3.2 | 8.0 | 0.00 | 0.00 | 0.00 | 85 | 990.9 |
| 20260906111301 | 18 | 342 | 4.8 | 8.0 | 0.00 | 0.00 | 0.00 | 84 | 991.0 |
| 20260906110801 | 18 | 342 | 4.8 | 8.0 | 0.00 | 0.00 | 0.00 | 84 | 990.9 |
| 20260906110301 | 18 | 10 | 6.4 | 8.0 | 0.00 | 0.00 | 0.00 | 84 | 990.9 |
| 20260906105801 | 18 | 355 | 6.4 | 9.7 | 0.00 | 0.00 | 0.00 | 84 | 990.9 |
| 20260906105301 | 18 | 33 | 6.4 | 9.7 | 0.00 | 0.00 | 0.00 | 84 | 990.8 |
| 20260906104800 | 18 | 22 | 3.2 | 8.0 | 0.00 | 0.00 | 0.00 | 84 | 990.9 |
| 20260906104300 | 18 | 326 | 3.2 | 9.7 | 0.00 | 0.00 | 0.00 | 84 | 990.9 |
| 20260906103801 | 18 | 326 | 3.2 | 9.7 | 0.00 | 0.00 | 0.00 | 84 | 990.9 |
| 20260906103539 | 17 | 317 | 4.8 | 9.7 | 0.00 | 0.00 | 0.00 | 84 | 990.9 |
| 20260906102801 | 17 | 320 | 6.4 | 9.7 | 0.00 | 0.00 | 0.00 | 84 | 990.9 |
| 20260906102536 | 17 | 333 | 4.8 | 9.7 | 0.00 | 0.00 | 0.00 | 83 | 990.9 |
| 20260906101801 | 17 | 288 | 3.2 | 8.0 | 0.00 | 0.00 | 0.00 | 83 | 990.9 |
| 20260906101317 | 17 | 285 | 4.8 | 8.0 | 0.00 | 0.00 | 0.00 | 83 | 990.7 |
| 20260906101312 | 17 | 285 | 3.2 | 8.0 | 0.00 | 0.00 | 0.00 | 83 | 990.9 |
| 20260906100302 | 17 | 300 | 6.4 | 9.7 | 0.00 | 0.00 | 0.00 | 83 | 990.8 |
| 20260906095800 | 18 | 325 | 6.4 | 9.7 | 0.00 | 0.00 | 0.00 | 83 | 990.7 |
| 20260906095305 | 18 | 298 | 6.4 | 11.3 | 0.00 | 0.00 | 0.00 | 83 | 990.7 |
| 20260906094801 | 18 | 325 | 8.0 | 11.3 | 0.00 | 0.00 | 0.00 | 83 | 990.8 |
| 20260906094302 | 18 | 349 | 6.4 | 11.3 | 0.00 | 0.00 | 0.00 | 83 | 990.7 |
| 20260906093802 | 18 | 14 | 6.4 | 11.3 | 0.00 | 0.00 | 0.00 | 83 | 990.6 |
| 20260906093302 | 18 | 22 | 8.0 | 11.3 | 0.00 | 0.00 | 0.00 | 83 | 990.6 |
| 20260906092800 | 18 | 18 | 8.0 | 11.3 | 0.00 | 0.00 | 0.00 | 83 | 990.6 |
| 20260906092538 | 18 | 9 | 9.7 | 11.3 | 0.00 | 0.00 | 0.00 | 83 | 990.5 |
| 20260906091800 | 18 | 11 | 8.0 | 11.3 | 0.00 | 0.00 | 0.00 | 83 | 990.5 |
| 20260906091538 | 18 | 350 | 6.4 | 9.7 | 0.00 | 0.00 | 0.00 | 83 | 990.5 |
| 20260906090801 | 18 | 351 | 6.4 | 9.7 | 0.00 | 0.00 | 0.00 | 83 | 990.6 |
| 20260906090302 | 18 | 334 | 6.4 | 9.7 | 0.00 | 0.00 | 0.00 | 82 | 990.5 |
| 20260906085801 | 18 | 35 | 4.8 | 9.7 | 0.00 | 0.00 | 0.00 | 83 | 990.5 |
| 20260906085300 | 18 | 11 | 6.4 | 9.7 | 0.00 | 0.00 | 0.00 | 83 | 990.5 |
| 20260906084801 | 18 | 51 | 6.4 | 11.3 | 0.00 | 0.00 | 0.00 | 82 | 990.6 |
| 20260906084300 | 18 | 19 | 6.4 | 11.3 | 0.00 | 0.00 | 0.00 | 82 | 990.6 |
| 20260906083801 | 18 | 27 | 6.4 | 8.0 | 0.00 | 0.00 | 0.00 | 83 | 990.5 |
| 20260906083302 | 18 | 13 | 6.4 | 8.0 | 0.00 | 0.00 | 0.00 | 82 | 990.5 |
| 20260906082802 | 18 | 16 | 4.8 | 8.0 | 0.00 | 0.00 | 0.00 | 82 | 990.5 |
| 20260906082301 | 18 | 51 | 3.2 | 6.4 | 0.00 | 0.00 | 0.00 | 82 | 990.4 |
| 20260906081800 | 18 | 16 | 4.8 | 8.0 | 0.00 | 0.00 | 0.00 | 82 | 990.4 |
| 20260906081300 | 18 | 307 | 3.2 | 8.0 | 0.00 | 0.00 | 0.00 | 82 | 990.4 |
| 20260906081038 | 18 | 302 | 3.2 | 8.0 | 0.00 | 0.00 | 0.00 | 82 | 990.4 |
| 20260906080301 | 18 | 321 | 4.8 | 8.0 | 0.00 | 0.00 | 0.00 | 83 | 990.4 |
| 20260906080038 | 18 | 338 | 4.8 | 8.0 | 0.00 | 0.00 | 0.00 | 83 | 990.4 |
| 20260906075301 | 18 | 317 | 6.4 | 9.7 | 0.00 | 0.00 | 0.00 | 83 | 990.4 |
| 20260906075040 | 18 | 313 | 6.4 | 9.7 | 0.00 | 0.00 | 0.00 | 83 | 990.4 |
| 20260906074301 | 18 | 300 | 4.8 | 9.7 | 0.00 | 0.00 | 0.00 | 83 | 990.3 |
| 20260906073802 | 18 | 307 | 3.2 | 8.0 | 0.00 | 0.00 | 0.00 | 82 | 990.3 |
| 20260906073301 | 18 | 291 | 3.2 | 6.4 | 0.00 | 0.00 | 0.00 | 82 | 990.2 |
| 20260906072801 | 18 | 305 | 3.2 | 9.7 | 0.00 | 0.00 | 0.00 | 82 | 990.2 |
| 20260906072305 | 18 | 311 | 4.8 | 9.7 | 0.00 | 0.00 | 0.00 | 82 | 990.2 |
| 20260906072035 | 18 | 304 | 4.8 | 8.0 | 0.00 | 0.00 | 0.00 | 82 | 990.1 |
| 20260906071301 | 18 | 314 | 4.8 | 8.0 | 0.00 | 0.00 | 0.00 | 82 | 990.1 |
| 20260906070802 | 18 | 327 | 4.8 | 8.0 | 0.00 | 0.00 | 0.00 | 83 | 990.2 |
| 20260906070302 | 18 | 306 | 4.8 | 8.0 | 0.00 | 0.00 | 0.00 | 83 | 990.1 |
| 20260906065758 | 18 | 329 | 4.8 | 8.0 | 0.00 | 0.00 | 0.00 | 83 | 990.1 |
| 20260906065531 | 18 | 323 | 4.8 | 9.7 | 0.00 | 0.00 | 0.00 | 83 | 990.3 |
| 20260906064746 | 18 | 323 | 4.8 | 9.7 | 0.00 | 0.00 | 0.00 | 83 | 990.2 |
| 20260906064241 | 18 | 312 | 4.8 | 9.7 | 0.00 | 0.00 | 0.00 | 83 | 990.3 |
| 20260906063734 | 18 | 309 | 4.8 | 9.7 | 0.00 | 0.00 | 0.00 | 83 | 990.3 |
| 20260906063230 | 18 | 304 | 6.4 | 9.7 | 0.00 | 0.00 | 0.00 | 82 | 990.4 |
| 20260906062749 | 18 | 297 | 6.4 | 11.3 | 0.00 | 0.00 | 0.00 | 82 | 990.4 |
| 20260906062742 | 18 | 262 | 6.4 | 11.3 | 0.00 | 0.00 | 0.00 | 82 | 990.4 |
| 20260906061730 | 18 | 308 | 4.8 | 9.7 | 0.00 | 0.00 | 0.00 | 82 | 990.3 |
| 20260906061228 | 18 | 282 | 4.8 | 8.0 | 0.00 | 0.00 | 0.00 | 82 | 990.3 |
| 20260906060729 | 18 | 301 | 6.4 | 9.7 | 0.00 | 0.00 | 0.00 | 82 | 990.1 |
| 20260906060229 | 18 | 289 | 6.4 | 9.7 | 0.00 | 0.00 | 0.00 | 82 | 990.2 |
| 20260906055729 | 18 | 288 | 6.4 | 9.7 | 0.00 | 0.00 | 0.00 | 82 | 990.2 |
| 20260906055229 | 18 | 304 | 6.4 | 9.7 | 0.00 | 0.00 | 0.00 | 82 | 990.1 |
| 20260906054729 | 18 | 330 | 6.4 | 9.7 | 0.00 | 0.00 | 0.00 | 82 | 990.1 |
| 20260906054229 | 18 | 290 | 6.4 | 8.0 | 0.00 | 0.00 | 0.00 | 82 | 990.2 |
| 20260906054011 | 18 | 306 | 4.8 | 8.0 | 0.00 | 0.00 | 0.00 | 82 | 990.2 |
| 20260906053503 | 18 | 300 | 3.2 | 9.7 | 0.00 | 0.00 | 0.00 | 82 | 990.3 |
| 20260906052729 | 18 | 298 | 4.8 | 9.7 | 0.00 | 0.00 | 0.00 | 82 | 990.2 |
| 20260906052229 | 18 | 301 | 4.8 | 9.7 | 0.00 | 0.00 | 0.00 | 81 | 990.1 |
| 20260906051729 | 18 | 318 | 3.2 | 9.7 | 0.00 | 0.00 | 0.00 | 81 | 990.2 |
| 20260906051229 | 18 | 324 | 1.6 | 6.4 | 0.00 | 0.00 | 0.00 | 81 | 990.1 |
| 20260906050739 | 18 | 324 | 4.8 | 8.0 | 0.00 | 0.00 | 0.00 | 81 | 990.1 |
| 20260906050734 | 18 | 324 | 3.2 | 8.0 | 0.00 | 0.00 | 0.00 | 81 | 989.9 |
| 20260906045716 | 18 | 323 | 4.8 | 9.7 | 0.00 | 0.00 | 0.00 | 81 | 990.0 |
| 20260906045211 | 18 | 309 | 6.4 | 9.7 | 0.00 | 0.00 | 0.00 | 81 | 990.1 |
| 20260906044703 | 18 | 312 | 6.4 | 9.7 | 0.00 | 0.00 | 0.00 | 81 | 990.0 |
| 20260906044443 | 18 | 330 | 8.0 | 11.3 | 0.00 | 0.00 | 0.00 | 81 | 990.0 |
| 20260906043722 | 18 | 320 | 6.4 | 9.7 | 0.00 | 0.00 | 0.00 | 81 | 990.0 |
| 20260906043716 | 18 | 329 | 8.0 | 11.3 | 0.00 | 0.00 | 0.00 | 81 | 990.0 |
| 20260906042705 | 18 | 308 | 8.0 | 11.3 | 0.00 | 0.00 | 0.00 | 81 | 989.8 |
| 20260906042204 | 18 | 336 | 8.0 | 12.9 | 0.00 | 0.00 | 0.00 | 81 | 989.7 |
| 20260906041702 | 18 | 0 | 8.0 | 12.9 | 0.00 | 0.00 | 0.00 | 81 | 989.7 |
| 20260906041441 | 18 | 14 | 8.0 | 11.3 | 0.00 | 0.00 | 0.00 | 81 | 989.6 |
| 20260906040702 | 18 | 0 | 8.0 | 12.9 | 0.00 | 0.00 | 0.00 | 81 | 989.6 |
| 20260906040202 | 19 | 56 | 8.0 | 12.9 | 0.00 | 0.00 | 0.00 | 81 | 989.6 |
| 20260906035702 | 19 | 25 | 8.0 | 11.3 | 0.00 | 0.00 | 0.00 | 81 | 989.7 |
| 20260906035201 | 19 | 355 | 8.0 | 12.9 | 0.00 | 0.00 | 0.00 | 81 | 989.8 |
| 20260906034702 | 19 | 38 | 8.0 | 12.9 | 0.00 | 0.00 | 0.00 | 81 | 989.8 |
| 20260906034201 | 19 | 11 | 8.0 | 14.5 | 0.00 | 0.00 | 0.00 | 81 | 989.7 |
| 20260906033701 | 19 | 44 | 8.0 | 14.5 | 0.00 | 0.00 | 0.00 | 80 | 989.7 |
| 20260906033201 | 19 | 250 | 9.7 | 17.7 | 0.00 | 0.00 | 0.00 | 80 | 989.7 |
| 20260906032700 | 19 | 33 | 9.7 | 17.7 | 0.00 | 0.00 | 0.00 | 80 | 989.6 |
| 20260906032202 | 19 | 5 | 9.7 | 17.7 | 0.00 | 0.00 | 0.00 | 80 | 989.6 |
| 20260906031701 | 19 | 42 | 9.7 | 17.7 | 0.00 | 0.00 | 0.00 | 80 | 989.6 |
| 20260906031200 | 19 | 150 | 8.0 | 17.7 | 0.00 | 0.00 | 0.00 | 79 | 989.7 |
| 20260906030701 | 19 | 337 | 8.0 | 16.1 | 0.00 | 0.00 | 0.00 | 79 | 989.7 |
| 20260906030201 | 19 | 0 | 8.0 | 16.1 | 0.00 | 0.00 | 0.00 | 79 | 989.7 |
| 20260906025702 | 19 | 346 | 8.0 | 14.5 | 0.00 | 0.00 | 0.00 | 79 | 989.7 |
| 20260906025201 | 19 | 35 | 8.0 | 16.1 | 0.00 | 0.00 | 0.00 | 79 | 989.8 |
| 20260906024702 | 20 | 42 | 6.4 | 16.1 | 0.00 | 0.00 | 0.00 | 78 | 989.7 |
| 20260906024437 | 20 | 40 | 6.4 | 16.1 | 0.00 | 0.00 | 0.00 | 78 | 989.7 |
| 20260906023701 | 20 | 28 | 6.4 | 16.1 | 0.00 | 0.00 | 0.00 | 78 | 989.6 |
| 20260906023202 | 20 | 30 | 8.0 | 17.7 | 0.00 | 0.00 | 0.00 | 78 | 989.6 |
| 20260906022701 | 20 | 36 | 8.0 | 17.7 | 0.00 | 0.00 | 0.00 | 78 | 989.5 |
| 20260906022201 | 20 | 336 | 6.4 | 14.5 | 0.00 | 0.00 | 0.00 | 78 | 989.5 |
| 20260906021701 | 20 | 44 | 4.8 | 14.5 | 0.00 | 0.00 | 0.00 | 77 | 989.6 |
| 20260906021202 | 20 | 26 | 6.4 | 16.1 | 0.00 | 0.00 | 0.00 | 77 | 989.6 |
| 20260906020701 | 20 | 78 | 8.0 | 16.1 | 0.00 | 0.00 | 0.00 | 77 | 989.6 |
| 20260906020201 | 20 | 69 | 8.0 | 16.1 | 0.00 | 0.00 | 0.00 | 77 | 989.5 |
| 20260906015703 | 20 | 26 | 9.7 | 16.1 | 0.00 | 0.00 | 0.00 | 77 | 989.5 |
| 20260906015159 | 20 | 57 | 8.0 | 14.5 | 0.00 | 0.00 | 0.00 | 77 | 989.5 |
| 20260906014941 | 20 | 48 | 6.4 | 14.5 | 0.00 | 0.00 | 0.00 | 78 | 989.4 |
| 20260906014201 | 20 | 19 | 6.4 | 14.5 | 0.00 | 0.00 | 0.00 | 78 | 989.4 |
| 20260906013659 | 20 | 92 | 8.0 | 14.5 | 0.00 | 0.00 | 0.00 | 79 | 989.4 |
| 20260906013158 | 20 | 49 | 6.4 | 14.5 | 0.00 | 0.00 | 0.00 | 79 | 989.4 |
| 20260906012659 | 21 | 61 | 4.8 | 12.9 | 0.00 | 0.00 | 0.00 | 80 | 989.5 |
| 20260906012157 | 21 | 76 | 4.8 | 12.9 | 0.00 | 0.00 | 0.00 | 80 | 989.4 |
| 20260906011658 | 21 | 96 | 4.8 | 12.9 | 0.00 | 0.00 | 0.00 | 80 | 989.4 |
| 20260906011435 | 21 | 16 | 3.2 | 11.3 | 0.00 | 0.00 | 0.00 | 80 | 989.4 |
| 20260906010658 | 21 | 77 | 4.8 | 9.7 | 0.00 | 0.00 | 0.00 | 80 | 989.5 |
| 20260906010157 | 21 | 29 | 4.8 | 11.3 | 0.00 | 0.00 | 0.00 | 81 | 989.5 |
| 20260906005657 | 21 | 22 | 6.4 | 11.3 | 0.00 | 0.00 | 0.00 | 81 | 989.4 |
| 20260906005155 | 21 | 41 | 6.4 | 11.3 | 0.00 | 0.00 | 0.00 | 81 | 989.3 |
| 20260906004655 | 21 | 13 | 6.4 | 12.9 | 0.00 | 0.00 | 0.00 | 81 | 989.3 |
| 20260906004156 | 21 | 37 | 8.0 | 14.5 | 0.00 | 0.00 | 0.00 | 80 | 989.3 |
| 20260906003934 | 21 | 41 | 6.4 | 14.5 | 0.00 | 0.00 | 0.00 | 80 | 989.2 |
| 20260906003153 | 21 | 310 | 8.0 | 16.1 | 0.00 | 0.00 | 0.00 | 80 | 989.2 |
| 20260906002652 | 21 | 38 | 8.0 | 16.1 | 0.00 | 0.00 | 0.00 | 80 | 989.2 |
| 20260906002146 | 21 | 44 | 6.4 | 16.1 | 0.00 | 0.00 | 0.00 | 80 | 989.3 |
| 20260906001653 | 21 | 104 | 6.4 | 16.1 | 0.00 | 0.00 | 0.00 | 80 | 989.2 |
| 20260906000643 | 21 | 22 | 9.7 | 17.7 | 0.00 | 0.00 | 0.00 | 80 | 989.3 |
| 20260906000418 | 21 | 42 | 9.7 | 19.3 | 0.00 | 0.00 | 0.00 | 79 | 989.4 |
| 20260905235642 | 21 | 72 | 8.0 | 19.3 | 0.00 | 0.00 | 0.00 | 79 | 989.3 |
| 20260905235141 | 21 | 68 | 8.0 | 16.1 | 0.00 | 0.00 | 0.00 | 79 | 989.3 |
| 20260905234919 | 21 | 53 | 8.0 | 16.1 | 0.00 | 0.00 | 0.00 | 79 | 989.4 |
| 20260905234140 | 21 | 50 | 8.0 | 16.1 | 0.00 | 0.00 | 0.00 | 80 | 989.4 |
| 20260905233641 | 21 | 60 | 6.4 | 14.5 | 0.00 | 0.00 | 0.00 | 79 | 989.3 |
| 20260905233138 | 21 | 32 | 6.4 | 16.1 | 0.00 | 0.00 | 0.00 | 79 | 989.4 |
| 20260905232639 | 21 | 355 | 8.0 | 19.3 | 0.00 | 0.00 | 0.00 | 79 | 989.4 |
| 20260905232138 | 21 | 43 | 9.7 | 22.5 | 0.00 | 0.00 | 0.00 | 79 | 989.3 |
| 20260905231634 | 21 | 41 | 9.7 | 22.5 | 0.00 | 0.00 | 0.00 | 80 | 989.3 |
| 20260905231410 | 21 | 15 | 9.7 | 22.5 | 0.00 | 0.00 | 0.00 | 80 | 989.3 |
| 20260905230634 | 21 | 34 | 9.7 | 22.5 | 0.00 | 0.00 | 0.00 | 80 | 989.3 |
| 20260905230135 | 21 | 41 | 9.7 | 22.5 | 0.00 | 0.00 | 0.00 | 80 | 989.4 |
| 20260905225634 | 21 | 57 | 12.9 | 22.5 | 0.00 | 0.00 | 0.00 | 80 | 989.4 |
| 20260905225409 | 21 | 49 | 9.7 | 20.9 | 0.00 | 0.00 | 0.00 | 80 | 989.2 |
| 20260905224910 | 22 | 28 | 8.0 | 22.5 | 0.00 | 0.00 | 0.00 | 80 | 989.3 |
| 20260905224409 | 22 | 202 | 9.7 | 22.5 | 0.00 | 0.00 | 0.00 | 80 | 989.4 |
| 20260905223634 | 22 | 46 | 11.3 | 22.5 | 0.00 | 0.00 | 0.00 | 80 | 989.3 |
| 20260905223131 | 22 | 59 | 9.7 | 22.5 | 0.00 | 0.00 | 0.00 | 80 | 989.2 |
| 20260905222629 | 22 | 26 | 8.0 | 20.9 | 0.00 | 0.00 | 0.00 | 79 | 989.2 |
| 20260905222129 | 22 | 74 | 9.7 | 20.9 | 0.00 | 0.00 | 0.00 | 79 | 989.0 |
| 20260905221629 | 22 | 107 | 11.3 | 24.1 | 0.00 | 0.00 | 0.00 | 79 | 989.0 |
| 20260905221408 | 22 | 28 | 12.9 | 24.1 | 0.00 | 0.00 | 0.00 | 79 | 988.9 |
| 20260905220629 | 22 | 36 | 11.3 | 24.1 | 0.00 | 0.00 | 0.00 | 79 | 988.7 |
| 20260905220150 | 22 | 337 | 11.3 | 24.1 | 0.00 | 0.00 | 0.00 | 79 | 988.7 |
| 20260905220143 | 22 | 28 | 11.3 | 22.5 | 0.00 | 0.00 | 0.00 | 79 | 988.7 |
| 20260905215130 | 22 | 34 | 11.3 | 24.1 | 0.00 | 0.00 | 0.00 | 79 | 988.5 |
| 20260905214631 | 22 | 27 | 9.7 | 22.5 | 0.00 | 0.00 | 0.00 | 79 | 988.5 |
| 20260905214130 | 22 | 34 | 11.3 | 25.7 | 0.00 | 0.00 | 0.00 | 79 | 988.5 |
| 20260905213908 | 22 | 340 | 12.9 | 25.7 | 0.00 | 0.00 | 0.00 | 79 | 988.4 |
| 20260905213129 | 22 | 69 | 11.3 | 25.7 | 0.00 | 0.00 | 0.00 | 79 | 988.6 |
| 20260905212907 | 22 | 38 | 12.9 | 25.7 | 0.00 | 0.00 | 0.00 | 79 | 988.6 |
| 20260905212129 | 23 | 107 | 11.3 | 24.1 | 0.00 | 0.00 | 0.00 | 78 | 988.6 |
| 20260905211629 | 23 | 45 | 11.3 | 29.0 | 0.00 | 0.00 | 0.00 | 78 | 988.6 |
| 20260905211407 | 23 | 48 | 12.9 | 29.0 | 0.00 | 0.00 | 0.00 | 77 | 988.5 |
| 20260905210639 | 23 | 65 | 12.9 | 22.5 | 0.00 | 0.00 | 0.00 | 77 | 988.5 |
| 20260905205622 | 23 | 20 | 9.7 | 22.5 | 0.00 | 0.00 | 0.00 | 77 | 988.4 |
| 20260905205115 | 24 | 238 | 12.9 | 25.7 | 0.00 | 0.00 | 0.00 | 76 | 988.5 |
| 20260905204610 | 24 | 78 | 11.3 | 25.7 | 0.00 | 0.00 | 0.00 | 76 | 988.5 |
| 20260905204339 | 24 | 48 | 9.7 | 20.9 | 0.00 | 0.00 | 0.00 | 76 | 988.4 |
| 20260905203605 | 24 | 20 | 12.9 | 29.0 | 0.00 | 0.00 | 0.00 | 75 | 988.4 |
| 20260905203104 | 24 | 86 | 12.9 | 29.0 | 0.00 | 0.00 | 0.00 | 74 | 988.3 |
| 20260905202603 | 25 | 32 | 12.9 | 32.2 | 0.00 | 0.00 | 0.00 | 74 | 988.3 |
| 20260905202102 | 25 | 176 | 11.3 | 32.2 | 0.00 | 0.00 | 0.00 | 74 | 988.2 |
| 20260905201601 | 25 | 343 | 11.3 | 29.0 | 0.00 | 0.00 | 0.00 | 74 | 988.3 |
| 20260905201338 | 25 | 304 | 14.5 | 29.0 | 0.00 | 0.00 | 0.00 | 74 | 988.2 |
| 20260905200600 | 25 | 219 | 14.5 | 29.0 | 0.00 | 0.00 | 0.00 | 74 | 988.3 |
| 20260905195601 | 25 | 49 | 11.3 | 22.5 | 0.00 | 0.00 | 0.00 | 74 | 988.3 |
| 20260905195102 | 25 | 288 | 11.3 | 24.1 | 0.00 | 0.00 | 0.00 | 74 | 988.3 |
| 20260905194601 | 25 | 69 | 12.9 | 29.0 | 0.00 | 0.00 | 0.00 | 75 | 988.4 |
| 20260905194101 | 25 | 53 | 12.9 | 29.0 | 0.00 | 0.00 | 0.00 | 75 | 988.4 |
| 20260905193601 | 24 | 51 | 11.3 | 24.1 | 0.00 | 0.00 | 0.00 | 75 | 988.3 |
| 20260905193100 | 25 | 54 | 9.7 | 22.5 | 0.00 | 0.00 | 0.00 | 76 | 988.4 |
| 20260905192837 | 24 | 30 | 11.3 | 22.5 | 0.00 | 0.00 | 0.00 | 76 | 988.4 |
| 20260905192339 | 24 | 28 | 12.9 | 22.5 | 0.00 | 0.00 | 0.00 | 76 | 988.3 |
| 20260905191602 | 24 | 107 | 12.9 | 30.6 | 0.00 | 0.00 | 0.00 | 76 | 988.3 |
| 20260905191101 | 24 | 105 | 12.9 | 30.6 | 0.00 | 0.00 | 0.00 | 76 | 988.4 |
| 20260905190600 | 24 | 295 | 14.5 | 29.0 | 0.00 | 0.00 | 0.00 | 76 | 988.4 |
| 20260905190342 | 25 | 0 | 14.5 | 29.0 | 0.00 | 0.00 | 0.00 | 77 | 988.4 |
| 20260905185601 | 24 | 99 | 12.9 | 25.7 | 0.00 | 0.00 | 0.00 | 77 | 988.4 |
| 20260905185335 | 24 | 49 | 12.9 | 30.6 | 0.00 | 0.00 | 0.00 | 77 | 988.4 |
| 20260905184601 | 25 | 336 | 11.3 | 30.6 | 0.00 | 0.00 | 0.00 | 77 | 988.4 |
| 20260905184102 | 25 | 105 | 12.9 | 25.7 | 0.00 | 0.00 | 0.00 | 77 | 988.3 |
| 20260905183602 | 25 | 196 | 12.9 | 25.7 | 0.00 | 0.00 | 0.00 | 77 | 988.2 |
| 20260905183101 | 25 | 22 | 12.9 | 20.9 | 0.00 | 0.00 | 0.00 | 77 | 988.2 |
| 20260905182601 | 25 | 19 | 12.9 | 20.9 | 0.00 | 0.00 | 0.00 | 77 | 988.3 |
| 20260905182101 | 25 | 54 | 12.9 | 20.9 | 0.00 | 0.00 | 0.00 | 76 | 988.3 |
| 20260905181602 | 25 | 24 | 12.9 | 20.9 | 0.00 | 0.00 | 0.00 | 76 | 988.2 |
| 20260905181101 | 25 | 19 | 12.9 | 20.9 | 0.00 | 0.00 | 0.00 | 75 | 988.2 |
| 20260905180854 | 25 | 29 | 11.3 | 20.9 | 0.00 | 0.00 | 0.00 | 74 | 988.3 |
| 20260905180849 | 25 | 348 | 12.9 | 20.9 | 0.00 | 0.00 | 0.00 | 75 | 988.3 |
| 20260905175602 | 25 | 60 | 11.3 | 19.3 | 0.00 | 0.00 | 0.00 | 75 | 988.2 |
| 20260905175102 | 25 | 13 | 11.3 | 20.9 | 0.00 | 0.00 | 0.00 | 74 | 988.2 |
| 20260905174601 | 25 | 9 | 11.3 | 20.9 | 0.00 | 0.00 | 0.00 | 75 | 988.1 |
| 20260905174100 | 25 | 51 | 14.5 | 20.9 | 0.00 | 0.00 | 0.00 | 75 | 988.1 |
| 20260905173601 | 25 | 5 | 14.5 | 20.9 | 0.00 | 0.00 | 0.00 | 75 | 988.2 |
| 20260905173100 | 25 | 337 | 14.5 | 24.1 | 0.00 | 0.00 | 0.00 | 75 | 988.3 |
| 20260905172840 | 25 | 30 | 17.7 | 25.7 | 0.00 | 0.00 | 0.00 | 75 | 988.3 |
| 20260905172339 | 25 | 336 | 16.1 | 25.7 | 0.00 | 0.00 | 0.00 | 75 | 988.3 |
| 20260905171838 | 25 | 350 | 12.9 | 25.7 | 0.00 | 0.00 | 0.00 | 75 | 988.3 |
| 20260905171340 | 25 | 72 | 16.1 | 25.7 | 0.00 | 0.00 | 0.00 | 76 | 988.3 |
| 20260905170601 | 25 | 14 | 19.3 | 32.2 | 0.00 | 0.00 | 0.00 | 75 | 988.2 |
| 20260905170101 | 25 | 49 | 16.1 | 32.2 | 0.00 | 0.00 | 0.00 | 74 | 988.4 |
| 20260905165601 | 25 | 0 | 11.3 | 25.7 | 0.00 | 0.00 | 0.00 | 75 | 988.3 |
| 20260905165101 | 25 | 29 | 11.3 | 20.9 | 0.00 | 0.00 | 0.00 | 75 | 988.3 |
| 20260905164836 | 25 | 50 | 14.5 | 29.0 | 0.00 | 0.00 | 0.00 | 75 | 988.4 |
| 20260905164100 | 25 | 39 | 11.3 | 29.0 | 0.00 | 0.00 | 0.00 | 75 | 988.4 |
| 20260905163601 | 25 | 29 | 9.7 | 20.9 | 0.00 | 0.00 | 0.00 | 75 | 988.3 |
| 20260905163338 | 25 | 327 | 12.9 | 20.9 | 0.00 | 0.00 | 0.00 | 75 | 988.3 |
| 20260905162602 | 24 | 42 | 12.9 | 22.5 | 0.00 | 0.00 | 0.00 | 76 | 988.3 |
| 20260905162339 | 24 | 20 | 12.9 | 22.5 | 0.00 | 0.00 | 0.00 | 75 | 988.2 |
| 20260905161601 | 24 | 135 | 12.9 | 20.9 | 0.00 | 0.00 | 0.00 | 76 | 988.3 |
| 20260905161101 | 24 | 17 | 12.9 | 24.1 | 0.00 | 0.00 | 0.00 | 77 | 988.4 |
| 20260905160602 | 24 | 355 | 11.3 | 24.1 | 0.00 | 0.03 | 0.00 | 76 | 988.4 |
| 20260905160101 | 24 | 45 | 9.7 | 24.1 | 0.00 | 0.03 | 0.00 | 76 | 988.3 |
| 20260905155601 | 24 | 40 | 11.3 | 24.1 | 0.00 | 0.10 | 0.00 | 76 | 988.3 |
| 20260905155341 | 24 | 20 | 11.3 | 20.9 | 0.00 | 0.13 | 0.00 | 76 | 988.3 |
| 20260905154601 | 23 | 27 | 12.9 | 19.3 | 0.00 | 0.13 | 0.00 | 77 | 988.2 |
| 20260905154336 | 23 | 11 | 9.7 | 19.3 | 0.00 | 0.13 | 0.00 | 77 | 988.1 |
| 20260905153601 | 23 | 40 | 6.4 | 19.3 | 0.00 | 0.13 | 0.00 | 77 | 988.3 |
| 20260905153338 | 23 | 48 | 9.7 | 20.9 | 0.00 | 0.15 | 0.00 | 78 | 988.2 |
| 20260905152601 | 23 | 46 | 11.3 | 20.9 | 0.00 | 0.15 | 0.00 | 78 | 988.3 |
| 20260905152102 | 23 | 53 | 14.5 | 30.6 | 0.00 | 0.20 | 0.00 | 79 | 988.2 |
| 20260905151600 | 23 | 81 | 12.9 | 30.6 | 0.00 | 0.20 | 0.00 | 79 | 988.0 |
| 20260905151102 | 23 | 22 | 8.0 | 20.9 | 0.00 | 0.20 | 0.00 | 80 | 988.1 |
| 20260905150601 | 23 | 11 | 9.7 | 20.9 | 0.00 | 0.20 | 0.00 | 80 | 988.0 |
| 20260905145600 | 22 | 41 | 6.4 | 14.5 | 0.00 | 0.28 | 0.00 | 82 | 988.0 |
| 20260905145101 | 22 | 53 | 9.7 | 24.1 | 0.00 | 0.28 | 0.00 | 83 | 988.0 |
| 20260905144601 | 22 | 336 | 16.1 | 24.1 | 0.00 | 0.28 | 0.00 | 83 | 987.9 |
| 20260905144338 | 22 | 17 | 14.5 | 24.1 | 0.00 | 0.28 | 0.00 | 84 | 987.9 |
| 20260905143601 | 22 | 21 | 11.3 | 25.7 | 0.00 | 0.28 | 0.00 | 85 | 987.7 |
| 20260905143101 | 22 | 16 | 11.3 | 25.7 | 0.00 | 0.28 | 0.00 | 86 | 987.6 |
| 20260905142601 | 22 | 22 | 11.3 | 22.5 | 0.00 | 0.28 | 0.00 | 88 | 987.7 |
| 20260905142102 | 22 | 64 | 9.7 | 22.5 | 0.00 | 0.28 | 0.00 | 89 | 987.6 |
| 20260905141602 | 22 | 42 | 8.0 | 19.3 | 0.00 | 0.28 | 0.00 | 90 | 987.6 |
| 20260905141100 | 22 | 57 | 9.7 | 19.3 | 0.00 | 0.28 | 0.00 | 90 | 987.7 |
| 20260905140601 | 22 | 74 | 12.9 | 22.5 | 0.00 | 0.28 | 0.00 | 91 | 987.7 |